星链-30367 (STARLINK-30367 )

导读

STARLINK-30367是美国SpaceX星链星座的一员,于2023年9月4日发射入轨。星链计划旨在构建全球低轨卫星互联网,为偏远地区提供高速宽带服务。作为量产型第二代星链卫星,它采用平板设计、霍尔电推,具备自主轨道维持和离轨能力,运行在近地轨道,支撑全球覆盖的低延迟网络服务,是星链星座规模化组网的重要组成部分。

Basic Information
目录编号:
57791
目录名称:
STARLINK-30367
国际标识:
2023-134W
轨道中心:
EARTH
卫星名称:
星链-30367
卫星全名:
星链-30367 (STARLINK-30367 )
卫星状态:
在轨 (已飞行1096 天)
发射日期:
2023-09-04 UTC
国别 :
美国 (US)
星等 :
--
Orbit Information
数据来源 国际轨道数据
星历时间: 2026-09-03T11:01:47+0800
1天前
查看轨道信息
半长轴: 6861.202km
偏心率: 0.0001149
轨道倾角: 43.003°
近地点辐角 275.093°
升交点赤经 272.397°
平近点角 84.979°
近地点: 482.276km
远地点: 483.854km
周期: 94.267分钟
每日圈数: 15.27575
Detailed Information
固有亮度:
5
最大亮度:
0.3
卫星平台:
Starlink v2.0 mini
覆盖范围:
全球
运营商:
太空探索技术公司
运营商所在国:
美国
制造商(研发单位):
太空探索技术公司
制造商所在国:
美国
使用方式:
暂无
Satellite Introduction
星链(Starlink)计划是由太空探索技术公司(SpaceX)提出的一个巨型低轨卫星互联网星座项目,计划在2019年至2024年间在太空搭建由约1.2万颗卫星组成的“星链”网络,其中1584颗将部署在地球上空550千米处的近地轨道,并从2020年开始工作。该卫星仍在工作。
2D Orbit Map
3D Orbit Map
Orbit Altitude Analysis Chart
Orbit Inclination Analysis Chart
Orbit Comprehensive Analysis Chart
View Comprehensive Chart
Conjunction Data List
Event ID Objects TCA Miss Dist (km) Collision Risk Probability Collision Risk Index (CRI) Action
CDM_260905-142005-779106-742421
2026-09-05T
14:20:26+0000
1.143 km
极远距离
6.725854E-6 低风险 0.52